OpenBCM V2.0.2 (Linux)

Packet Radio Mailbox

IZ3LSV

[San Dona' di P. JN]

 Login: GUEST





  
LU1HVK > KEPLER   10.01.20 17:44l 242 Lines 12024 Bytes #999 (0) @ WW
BID : 38618_LU1HVK
Read: GUEST
Subj: TLE 23 10
Path: IZ3LSV<IW0QNL<OK0NBR<OK2PEN<N3HYM<XE1FH<LU1HVK
Sent: 200110/1524Z 38618@LU1HVK.2594.CBA.ARG.SA LinBPQ6.0.19

                         _    _   _ _ _   ___     ___  __
                        | |  | | | / | | | \ \   / / |/ /
                        | |  | | | | | |_| |\ \ / /| ' /
                        | |__| |_| | |  _  | \ V / | . \
                        |_____\___/|_|_| |_|  \_/  |_|\_\

     BBS/NODO - CORDOBA (LEONES-FF87UH) - LU1HVK-4 NODO - LU1HVK-3 APRS

+----------------------------------------------------------------------------+
OSCAR 7
1  7530U 74089B   19295.87060160 -.00000023 +00000-0 +13597-3 0  9991
2  7530 101.7621 262.3110 0012434 102.6961 311.2933 12.53640391056095
OSCAR 11 (UoSAT 2)
1 14781U 84021B   19295.93236086 +.00000050 +00000-0 +12203-4 0  9996
2 14781 097.6044 314.6334 0006994 263.9969 096.0448 14.83113876896476
OSCAR 19 (LUSAT)
1 20442U 90005G   19295.84639171 -.00000003 +00000-0 +15164-4 0  9996
2 20442 098.6601 237.6948 0012483 133.7785 226.4433 14.32935632554382
EYESAT A
1 22825U 93061C   19295.92933435 +.00000005 +00000-0 +20036-4 0  9992
2 22825 098.9139 287.5090 0008367 358.8278 001.2882 14.30069073359726
ITAMSAT
1 22826U 93061D   19295.90157187 +.00000001 +00000-0 +18428-4 0  9991
2 22826 098.9079 287.4563 0008674 346.9282 013.1673 14.30403199359943
RADIO ROSTO
1 23439U 94085A   19295.89995033 -.00000011 +00000-0 +89141-3 0  9998
2 23439 064.8150 272.0269 0145246 088.5805 273.1752 11.27568517022128
JAS 2
1 24278U 96046B   19295.91987509 -.00000014 +00000-0 +25223-4 0  9996
2 24278 098.5570 072.3164 0349289 272.7842 083.3377 13.53094254144623
TECHSAT 1B
1 25397U 98043D   19295.84380325 -.00000004 +00000-0 +17612-4 0  9995
2 25397 098.6990 234.5107 0002123 056.7465 303.3916 14.23672682105600
ISS (ZARYA)
1 25544U 98067A   19295.92794334  .00000409  00000-0  15112-4 0  9994
2 25544  51.6447  87.8630 0006799 176.3007 321.5581 15.50212157195072
PCSAT
1 26931U 01043C   19295.76540772 -.00000039 +00000-0 +16981-4 0  9995
2 26931 067.0530 038.3455 0007475 267.5873 092.4372 14.30555901942930
SAUDISAT 1C
1 27607U 02058C   19295.74225123 -.00000004  00000-0  20267-4 0  9995
2 27607  64.5568  24.2095 0074496 231.9949 127.4412 14.75581167905636
CUTE-1
1 27844U 03031E   19295.93808694 +.00000058 +00000-0 +45625-4 0  9994
2 27844 098.6854 302.2695 0010373 031.4057 328.7738 14.22200704846196
CUBESAT XI 4
1 27848U 03031J   19295.54402192 +.00000043 +00000-0 +39227-4 0  9993
2 27848 098.6928 302.4069 0010475 043.6023 316.5981 14.21792874845995
MOZHAYETS 4
1 27939U 03042A   19295.90776618 +.00000082 +00000-0 +23245-4 0  9999
2 27939 098.0587 069.3978 0013575 032.7625 327.4409 14.66810845859045
CUBESAT XI 5
1 28895U 05043F   19295.84080043 +.00000123 +00000-0 +32460-4 0  9992
2 28895 097.9777 074.3846 0015792 316.7647 043.2315 14.63701800745701
CUTE-1.7+APD II
1 32785U 08021C   19295.81056703 +.00000188 +00000-0 +25886-4 0  9992
2 32785 097.5568 289.6221 0012474 198.5970 161.4793 14.88360304622372
DELFI C3
1 32789U 08021G   19295.70442248  .00000762  00000-0  54567-4 0  9993
2 32789  97.4511 341.4916 0013423  59.0120 301.2425 15.07188026625947
SEEDS
1 32791U 08021J   19295.54898608 +.00000400 +00000-0 +45912-4 0  9996
2 32791 097.5320 295.4572 0013449 172.2796 187.8633 14.90891116622780
YUBELEINY
1 32953U 08025A   19295.76276873  .00000020  00000-0  75656-4 0  9994
2 32953  82.5018  66.3507 0019093 212.3969 147.5940 12.43091862517974
PRISM (HITOMI)
1 33493U 09002B   19295.74990675 +.00001096 +00000-0 +10114-3 0  9992
2 33493 098.1233 221.4895 0016371 122.3925 237.8882 14.96770408583991
KKS-1 (KISEKI)
1 33499U 09002H   19295.88089489 +.00000064 +00000-0 +17487-4 0  9990
2 33499 098.3400 138.5657 0009512 157.6784 202.4840 14.75471243577405
SWISSCUBE
1 35932U 09051B   19295.46862348  .00000136  00000-0  41665-4 0  9990
2 35932  98.5991 105.2202 0008392 134.5645 225.6238 14.56320364535080
BEESAT
1 35933U 09051C   19295.73888754 +.00000116 +00000-0 +37182-4 0  9997
2 35933 098.6008 107.3089 0006435 143.8585 216.3048 14.56405080535152
ITUPSAT 1
1 35935U 09051E   19295.45697741 +.00000084 +00000-0 +30396-4 0  9996
2 35935 098.6117 107.2460 0008738 144.8064 215.3711 14.55559967534909
XIWANG-1 (HOPE-1)
1 36122U 09072B   19295.75143074 -.00000049 +00000-0 -18500-4 0  9992
2 36122 100.0788 292.2300 0007968 057.5248 302.6635 13.16351484473464
TISAT 1
1 36799U 10035E   19295.90458892 +.00000349 +00000-0 +41209-4 0  9990
2 36799 098.1717 092.3763 0012981 037.4131 322.7987 14.91181761503374
JUGNU
1 37839U 11058B   19295.33839733 +.00000336 +00000-0 +37028-4 0  9996
2 37839 019.9619 292.8371 0018684 272.3034 217.2816 14.12662189414935
SRMSAT
1 37841U 11058D   19295.49698631 +.00000295 +00000-0 +16711-4 0  9996
2 37841 019.9734 351.2515 0011887 137.7982 350.5992 14.10641317414383
M-CUBED/EXP-1 PRIME
1 37855U 11061F   19295.86989440 +.00001411 +00000-0 +77709-4 0  9992
2 37855 101.7180 256.2542 0172994 062.6589 299.2114 15.05666349435298
HORYU 2
1 38340U 12025D   19295.82529808 +.00000154 +00000-0 +30431-4 0  9991
2 38340 098.3163 338.1180 0012760 083.8296 276.4366 14.75762584389357
STRAND 1
1 39090U 13009E   19295.63425500 +.00000017 +00000-0 +21326-4 0  9991
2 39090 098.4755 139.4140 0008067 276.2328 083.7939 14.35101216348439
SOMP
1 39134U 13015E   19295.46503643 +.00000999 +00000-0 +54340-4 0  9994
2 39134 064.8631 332.8852 0037233 282.9920 076.7052 15.20412696359337
BEESAT 3
1 39135U 13015F   19295.54592269 +.00000782 +00000-0 +48018-4 0  9991
2 39135 064.8689 352.7089 0037527 289.8144 069.8938 15.17667324358953
BEESAT 2
1 39136U 13015G   19295.56501152 +.00000719 +00000-0 +45847-4 0  9992
2 39136 064.8697 356.8341 0029099 294.9294 064.8809 15.17083934358879
CUBEBUG 1
1 39153U 13018D   19295.80348382  .00000189  00000-0  31542-4 0  9993
2 39153  97.9814  33.2402 0017754 146.4093 213.8248 14.80610714350475
ZACUBE
1 39417U 13066B   19295.90183043 +.00000205 +00000-0 +32110-4 0  9992
2 39417 097.5625 302.3102 0058437 341.6130 018.2971 14.81164630319720
TRITON 1
1 39427U 13066M   19295.90614832 +.00000191 +00000-0 +38138-4 0  9998
2 39427 097.6925 265.5895 0114965 120.9957 240.2602 14.67892818316666
GOMX 1
1 39430U 13066Q   19295.92553522 +.00000135 +00000-0 +33759-4 0  9994
2 39430 097.7604 244.2516 0150009 215.9446 143.1598 14.59298388315012
HUMSAT D
1 39433U 13066T   19295.67799286 +.00000493 +00000-0 +53309-4 0  9998
2 39433 097.5401 337.9481 0029509 238.6872 121.1458 14.92276686320688
CUBEBUG 2
1 39440U 13066AA  19295.92294122 +.00000234 +00000-0 +39360-4 0  9997
2 39440 097.6108 286.9587 0081135 035.7689 324.8918 14.75901689317392
FUNCUBE 1
1 39444U 13066AE  19295.89985740 +.00000252 +00000-0 +37395-4 0  9996
2 39444 097.5596 304.3720 0057370 334.8846 024.9580 14.81993751318035
UWE-3
1 39446U 13066AG  19295.91384514 +.00000209 +00000-0 +34402-4 0  9991
2 39446 097.5859 294.0939 0070254 009.4118 350.8392 14.78436962317324
SPROUT
1 39770U 14029E   19295.83544456 +.00000535 +00000-0 +65119-4 0  9996
2 39770 097.8901 038.3522 0009809 036.5486 323.6394 14.87465994293587
UNISAT 6
1 40012U 14033C   19295.87214826 +.00000172 +00000-0 +32845-4 0  9998
2 40012 097.7384 156.9317 0059493 051.5112 309.1413 14.74020841287272
DUCHIFAT 1
1 40021U 14033M   19295.73988195 +.00000508 +00000-0 +57601-4 0  9990
2 40021 097.9256 220.7565 0013058 001.0836 359.0407 14.90710934290321
QB50P1
1 40025U 14033R   19295.77082254 +.00000241 +00000-0 +31581-4 0  9992
2 40025 097.9046 215.2377 0012780 011.3986 348.7517 14.89002666289579
CHUBUSAT 1
1 40300U 14070C   19295.82183782  .00000489  00000-0  24211-4 0  9999
2 40300  97.3160   6.7506 0019666 336.0964 158.2539 15.22212103275206
NUDT-PHONESAT
1 40900U 15049B   19295.85944017 +.00001763 +00000-0 +77451-4 0  9991
2 40900 097.4379 303.9830 0014342 100.4158 344.1645 15.23163139226868
ZDPS 2A
1 40901U 15049C   19295.92134701 +.00000739 +00000-0 +39715-4 0  9994
2 40901 097.4625 299.9436 0014729 120.0442 299.7876 15.17883484226385
ZDPS 2B
1 40902U 15049D   19295.95462785 +.00000809 +00000-0 +43327-4 0  9996
2 40902 097.4577 297.3701 0014755 117.5835 272.8122 15.17751840226369
XW-2A
1 40903U 15049E   19295.74295619  .00001761  00000-0  42892-4 0  9998
2 40903  97.3240 339.1474 0014906  52.8550  79.6349 15.42214692229679
KAITUO 1A
1 40904U 15049F   19295.91763044 +.00000382 +00000-0 +23620-4 0  9996
2 40904 097.4715 295.7991 0015794 126.5240 322.7365 15.15469406226111
OBJECT G
1 40905U 15049G   19295.94975762 +.00000080 +00000-0 +78966-5 0  9991
2 40905 097.4768 293.2510 0016884 122.1206 293.6297 15.14365601225980
XW-2C
1 40906U 15049H   19295.76540601  .00000290  00000-0  18645-4 0  9992
2 40906  97.4720 295.7898 0016061 118.3661 359.1453 15.15786997226095
XW-2D
1 40907U 15049J   19295.91956506 +.00000645 +00000-0 +36954-4 0  9992
2 40907 097.4703 295.6227 0015555 115.1307 332.2175 15.15987713226138
LILACSAT 2
1 40908U 15049K   19295.90929723 +.00000101 +00000-0 +91511-5 0  9991
2 40908 097.4838 294.2957 0017190 123.0736 324.8910 15.13869512225906
XW-2F
1 40910U 15049M   19295.95267322 +.00000722 +00000-0 +39333-4 0  9991
2 40910 097.4659 297.8496 0016225 107.9380 309.1567 15.17477769226167
XW-2B
1 40911U 15049N   19295.83238624  .00000380  00000-0  23262-4 0  9996
2 40911  97.4722 296.2074 0015326 115.8404   5.8422 15.15913982226014
KAITUO 1B
1 40912U 15049P   19295.80347427  .00000985  00000-0  49049-4 0  9998
2 40912  97.4507 301.5430 0016543  91.3628  33.8133 15.19813089226460
TIANWANG 1C (TW-1C)
1 40926U 15051B   19295.89613516 +.00012409 +00000-0 +16578-3 0  9994
2 40926 097.1212 341.9978 0005588 259.4089 219.8922 15.58180360229798
TIANWANG 1B (TW-1B)
1 40927U 15051C   19295.92510593 +.00011458 +00000-0 +16346-3 0  9996
2 40927 097.1240 341.1363 0005706 274.9124 210.6604 15.56428700229634
